Regional Weather Roundup
Issued by NWS

Home | Current Version | Previous Version | Text Only | Print | Product List | Glossary Off
Versions: 1 2 3 4 5 6 7 8 9 10 11 12 13 14 15 16 17 18 19 20 21 22 23 24 25 26 27 28 29 30 31 32 33 34 35 36 37 38 39 40 41 42 43 44 45 46 47 48 49 50

223
ASUS43 KLMK 220510
RWRKY
KENTUCKY REGIONAL WEATHER ROUNDUP
NATIONAL WEATHER SERVICE LOUISVILLE KY
1200 AM EST WED FEB 22 2017

NOTE "FAIR" INDICATES FEW OR NO CLOUDS BELOW 12,000 FEET
WITH NO SIGNIFICANT WEATHER AND/OR OBSTRUCTIONS TO VISIBILITY.

KYZ001>023-026-027-061>063-070>075-220600-
WESTERN AND SOUTH CENTRAL KENTUCKY

CITY           SKY/WX    TMP DP  RH WIND       PRES   REMARKS
PADUCAH        CLOUDY    58  55  90 SE6       29.90F
HENDERSON      CLOUDY    57  54  88 SE10      29.89F
OWENSBORO      MOCLDY    59  55  87 S9        29.92F
HOPKINSVILLE   DRIZZLE   59  59 100 S5        29.93R
BOWLING GREEN  CLOUDY    56  55  97 CALM      29.95S FOG
GLASGOW        RAIN     N/A N/A N/A E3        29.95F
$$

KYZ024-025-028>034-038-045-046-053-220600-
NORTH CENTRAL KENTUCKY

CITY           SKY/WX    TMP DP  RH WIND       PRES   REMARKS
LOUISVILLE/SDF LGT RAIN  61  54  77 SE7       29.94F
LOUISVILLE/LOU CLOUDY    61  54  77 SE6       29.95F
FORT KNOX      CLOUDY    57  55  94 SE6       29.93F
$$

KYZ035>037-039>044-047>052-055>060-089>105-220600-
NORTHEAST KENTUCKY

CITY           SKY/WX    TMP DP  RH WIND       PRES   REMARKS
LEXINGTON      LGT RAIN  57  55  93 E3        29.98F FOG
COVINGTON      DRIZZLE   55  55 100 S7        29.96F FOG
FRANKFORT      LGT RAIN  58  55  90 E3        29.96F FOG
$$

KYZ054-064>069-076>088-106>120-220600-
SOUTHEAST KENTUCKY

CITY           SKY/WX    TMP DP  RH WIND       PRES   REMARKS
JACKSON        LGT RAIN  60  46  59 SW5       29.98F
LONDON         CLOUDY    56  51  84 CALM      29.98F
SOMERSET       DRIZZLE   54  54 100 CALM      29.98F
MIDDLESBORO    CLOUDY    56  53  91 W5        29.99F
MONTICELLO     LGT RAIN  55  54  96 NE9       29.99S
$$





USA.gov is the U.S. government's official web portal to all federal, state and local government web resources and services.